Weather History for Mora, MN

Change the Weather History Date:

Sunday, June 16, 2013

  Actual Average Record
Temperature  
Mean Temperature 64 °F -  
Max Temperature 80 °F 74 °F 94 °F (1987)
Min Temperature 48 °F 49 °F 35 °F (1980)
Degree Days  
Heating Degree Days 1    
Growing Degree Days 14 (Base 50)    
Moisture  
Dew Point 47 °F    
Average Humidity 53    
Maximum Humidity 94    
Minimum Humidity 24    
Precipitation  
Precipitation 0.00 in - - ()
Sea Level Pressure  
Sea Level Pressure 29.88 in    
Wind  
Wind Speed 4 mph (West)    
Max Wind Speed 17 mph    
Max Gust Speed 28 mph    
Visibility 10 miles    
Events      
Averages and records for this station are not official NWS values.
T = Trace of Precipitation, MM = Missing Value Source: NWS Daily Summary

Daily Weather History Graph

Daily Weather History Graph

Search for Another Location

Airport:

Trip Planner

Search our weather history database for the weather conditions in past years. The results will help you decide how hot, cold, wet, or windy it might be!

Date:

Astronomy

Jun. 16, 2013 Rise Set
Actual Time 5:22 AM CDT 9:05 PM CDT
Civil Twilight 4:43 AM CDT 9:44 PM CDT
Nautical Twilight 3:52 AM CDT 10:35 PM CDT
Astronomical Twilight 2:40 AM CDT 11:47 PM CDT
Moon 1:22 PM CDT (6/16) 12:49 AM CDT (6/16)
Length of Visible Light 17h 00m
Length of Day
15h 43m
Waxing Crescent, 50% of the Moon is Illuminated
Jun 16
Waxing Crescent
Jun 16
First Quarter
Jun 23
Full
Jun 29
Last Quarter
Jul 8
New

Hourly Weather History & Observations

Time (CDT) Temp. Dew Point Humidity Pressure Visibility Wind Dir Wind Speed Gust Speed Precip Events Conditions
12:11 AM 53.6 °F 50.0 °F 88% 29.89 in 10.0 mi Calm Calm - N/A   Clear
12:31 AM 53.6 °F 50.0 °F 88% 29.88 in 10.0 mi Calm Calm - N/A   Clear
12:51 AM 53.6 °F 50.0 °F 88% 29.88 in 10.0 mi Calm Calm - N/A   Clear
1:11 AM 55.4 °F 51.8 °F 88% 29.88 in 10.0 mi Calm Calm - N/A   Clear
1:31 AM 55.4 °F 50.0 °F 82% 29.88 in 10.0 mi Calm Calm - N/A   Clear
1:51 AM 55.4 °F 46.4 °F 72% 29.88 in 10.0 mi Calm Calm - N/A   Clear
2:11 AM 55.4 °F 46.4 °F 72% 29.88 in 10.0 mi Calm Calm - N/A   Clear
2:31 AM 55.4 °F 46.4 °F 72% 29.88 in 10.0 mi Calm Calm - N/A   Clear
2:51 AM 53.6 °F 46.4 °F 77% 29.88 in 10.0 mi Calm Calm - N/A   Clear
3:11 AM 53.6 °F 44.6 °F 72% 29.88 in 10.0 mi Calm Calm - N/A   Clear
3:31 AM 51.8 °F 46.4 °F 82% 29.88 in 10.0 mi Calm Calm - N/A   Clear
3:51 AM 50.0 °F 46.4 °F 87% 29.88 in 10.0 mi Calm Calm - N/A   Clear
4:11 AM 50.0 °F 46.4 °F 87% 29.88 in 10.0 mi Calm Calm - N/A   Clear
4:31 AM 50.0 °F 46.4 °F 87% 29.89 in 10.0 mi Calm Calm - N/A   Clear
4:51 AM 50.0 °F 46.4 °F 87% 29.89 in 10.0 mi Calm Calm - N/A   Clear
5:11 AM 50.0 °F 46.4 °F 87% 29.89 in 10.0 mi Calm Calm - N/A   Clear
5:31 AM 48.2 °F 44.6 °F 87% 29.90 in 10.0 mi Calm Calm - N/A   Clear
5:51 AM 50.0 °F 46.4 °F 87% 29.91 in 10.0 mi Calm Calm - N/A   Clear
6:11 AM 50.0 °F 48.2 °F 94% 29.91 in 10.0 mi Calm Calm - N/A   Clear
6:31 AM 53.6 °F 46.4 °F 77% 29.91 in 10.0 mi Calm Calm - N/A   Clear
6:51 AM 55.4 °F 48.2 °F 77% 29.91 in 10.0 mi Calm Calm - N/A   Clear
7:11 AM 59.0 °F 48.2 °F 67% 29.92 in 10.0 mi Calm Calm - N/A   Clear
7:31 AM 60.8 °F 50.0 °F 68% 29.92 in 10.0 mi Calm Calm - N/A   Clear
7:51 AM 64.4 °F 51.8 °F 64% 29.92 in 10.0 mi Calm Calm - N/A   Clear
8:11 AM 64.4 °F 50.0 °F 59% 29.91 in 10.0 mi Calm Calm - N/A   Clear
8:31 AM 68.0 °F 50.0 °F 52% 29.91 in 10.0 mi Calm Calm - N/A   Clear
8:51 AM 69.8 °F 50.0 °F 49% 29.91 in 10.0 mi West 4.6 mph - N/A   Clear
9:11 AM 71.6 °F 51.8 °F 50% 29.91 in 10.0 mi WNW 6.9 mph - N/A   Clear
9:31 AM 73.4 °F 51.8 °F 47% 29.91 in 10.0 mi WNW 6.9 mph - N/A   Clear
9:51 AM 73.4 °F 50.0 °F 44% 29.91 in 10.0 mi Calm Calm - N/A   Clear
10:11 AM 75.2 °F 50.0 °F 41% 29.91 in 10.0 mi WNW 6.9 mph - N/A   Clear
10:31 AM 75.2 °F 50.0 °F 41% 29.91 in 10.0 mi WNW 6.9 mph - N/A   Clear
10:51 AM 75.2 °F 46.4 °F 36% 29.91 in 10.0 mi Calm Calm - N/A   Clear
11:11 AM 77.0 °F 46.4 °F 34% 29.90 in 10.0 mi NW 15.0 mph 19.6 mph N/A   Clear
11:31 AM 77.0 °F 44.6 °F 32% 29.90 in 10.0 mi WNW 10.4 mph 23.0 mph N/A   Scattered Clouds
11:51 AM 77.0 °F 46.4 °F 34% 29.90 in 10.0 mi WNW 15.0 mph 21.9 mph N/A   Scattered Clouds
12:11 PM 77.0 °F 44.6 °F 32% 29.90 in 10.0 mi West 12.7 mph 20.7 mph N/A   Scattered Clouds
12:31 PM 78.8 °F 44.6 °F 30% 29.89 in 10.0 mi WNW 13.8 mph 20.7 mph N/A   Scattered Clouds
12:51 PM 77.0 °F 44.6 °F 32% 29.89 in 10.0 mi WNW 17.3 mph 23.0 mph N/A   Scattered Clouds
1:11 PM 78.8 °F 42.8 °F 28% 29.88 in 10.0 mi West 16.1 mph 23.0 mph N/A   Scattered Clouds
1:31 PM 78.8 °F 44.6 °F 30% 29.88 in 10.0 mi WNW 16.1 mph 25.3 mph N/A   Scattered Clouds
1:51 PM 78.8 °F 42.8 °F 28% 29.88 in 10.0 mi West 15.0 mph 24.2 mph N/A   Scattered Clouds
2:11 PM 78.8 °F 42.8 °F 28% 29.88 in 10.0 mi West 17.3 mph 27.6 mph N/A   Scattered Clouds
2:31 PM 78.8 °F 42.8 °F 28% 29.89 in 10.0 mi WNW 11.5 mph 21.9 mph N/A   Scattered Clouds
2:51 PM 78.8 °F 42.8 °F 28% 29.88 in 10.0 mi West 16.1 mph 20.7 mph N/A   Clear
3:11 PM 80.6 °F 42.8 °F 26% 29.89 in 10.0 mi West 12.7 mph 24.2 mph N/A   Scattered Clouds
3:31 PM 80.6 °F 42.8 °F 26% 29.88 in 10.0 mi West 15.0 mph 21.9 mph N/A   Scattered Clouds
3:51 PM 80.6 °F 42.8 °F 26% 29.87 in 10.0 mi West 13.8 mph 20.7 mph N/A   Scattered Clouds
4:11 PM 80.6 °F 41.0 °F 24% 29.86 in 10.0 mi WNW 12.7 mph 21.9 mph N/A   Clear
4:31 PM 80.6 °F 42.8 °F 26% 29.85 in 10.0 mi West 11.5 mph 23.0 mph N/A   Clear
4:51 PM 80.6 °F 42.8 °F 26% 29.85 in 10.0 mi West 16.1 mph 25.3 mph N/A   Scattered Clouds
5:11 PM 80.6 °F 41.0 °F 24% 29.84 in 10.0 mi West 13.8 mph 24.2 mph N/A   Clear
5:31 PM 80.6 °F 41.0 °F 24% 29.84 in 10.0 mi West 10.4 mph 21.9 mph N/A   Clear
5:51 PM 80.6 °F 42.8 °F 26% 29.84 in 10.0 mi West 8.1 mph - N/A   Clear
6:11 PM 80.6 °F 41.0 °F 24% 29.83 in 10.0 mi West 13.8 mph 17.3 mph N/A   Clear
6:31 PM 78.8 °F 41.0 °F 26% 29.83 in 10.0 mi West 8.1 mph 16.1 mph N/A   Clear
6:51 PM 78.8 °F 42.8 °F 28% 29.83 in 10.0 mi West 9.2 mph - N/A   Clear
7:11 PM 75.2 °F 46.4 °F 36% 29.85 in 10.0 mi WSW 15.0 mph 25.3 mph N/A   Scattered Clouds
7:31 PM 75.2 °F 50.0 °F 41% 29.85 in 10.0 mi West 17.3 mph 20.7 mph N/A   Scattered Clouds
7:50 PM 73.4 °F 50.0 °F 44% 29.84 in 10.0 mi West 12.7 mph 18.4 mph N/A   Clear
8:11 PM 73.4 °F 50.0 °F 44% 29.84 in 10.0 mi West 8.1 mph - N/A   Clear
8:31 PM 69.8 °F 50.0 °F 49% 29.84 in 10.0 mi WSW 9.2 mph - N/A   Clear
8:51 PM 69.8 °F 50.0 °F 49% 29.84 in 10.0 mi WSW 4.6 mph - N/A   Clear
9:11 PM 69.8 °F 51.8 °F 53% 29.84 in 10.0 mi WSW 3.5 mph - N/A   Clear
9:31 PM 68.0 °F 51.8 °F 56% 29.84 in 10.0 mi Calm Calm - N/A   Clear
9:51 PM 66.2 °F 50.0 °F 56% 29.85 in 10.0 mi SW 3.5 mph - N/A   Scattered Clouds
10:11 PM 64.4 °F 50.0 °F 59% 29.85 in 10.0 mi Calm Calm - N/A   Scattered Clouds
10:31 PM 64.4 °F 51.8 °F 64% 29.86 in 10.0 mi Calm Calm - N/A   Scattered Clouds
10:51 PM 64.4 °F 51.8 °F 64% 29.86 in 10.0 mi West 3.5 mph - N/A   Mostly Cloudy
11:11 PM 64.4 °F 53.6 °F 68% 29.87 in 10.0 mi West 4.6 mph - N/A   Mostly Cloudy
11:31 PM 64.4 °F 51.8 °F 64% 29.87 in 10.0 mi WNW 5.8 mph - N/A   Scattered Clouds
11:51 PM 64.4 °F 53.6 °F 68% 29.87 in 10.0 mi Calm Calm - N/A   Scattered Clouds